flux

Weather past 2 weeks in Mamoutzou, Mayotte

Now
82 °F

Passing clouds.


Feels Like: 86 °F
Forecast: 71 / 79 °F
Wind: 7 mph from Southeast

Location: Dzaoudzi / Pamanzi Mayotte

Current Time: Sep 23, 2014 at 2:02:44 PM

Latest Report: Sep 23, 2014 at 1:30 PM


Visibility: N/A

Pressure: 29.95 "Hg

Humidity: 66%

Dew point: 70 °F

Location of MamoutzouLocation

Historic Weather in Mamoutzou — Graph

°F

Mamoutzou temperature yesterday

Maximum temperature yesterday: 86 °F (at 11:00 AM)
Minimum temperature yesterday: 73 °F (at 2:30 AM)
Average temperature yesterday: 79 °F

Past Weeks' High & Low Weather Summary

 TemperatureHumidityPressure
High86 °F (Sep 18, 1:00 PM)94% (Sep 10, 4:30 AM)30.09 "Hg (Sep 10, 4:30 AM)
Low70 °F (Sep 10, 4:30 AM)55% (Sep 16, 10:30 AM)29.95 "Hg (Sep 17, 3:00 AM)
Average78 °F75%30.03 "Hg
* Reported Sep 8 1:00 PM — Sep 23 1:00 PM, Mamoutzou, Weather by CustomWeather, © 2014

Note: Actual official high and low records may vary slightly from our data, if they occured in-between our weather recording intervals... More about our weather records

Advertising

Mamoutzou weather history for previous 24 hours

 ConditionsComfort  
Time TempWeatherWind HumidityBarometerVisibility
1:00 PM
Sep 23
82 °FPassing clouds.9 mph66%29.98 "HgN/A
12:30 PM82 °FPassing clouds.8 mph62%29.98 "HgN/A
12:00 PM82 °FScattered clouds.8 mph70%29.98 "HgN/A
11:30 AM84 °FScattered clouds.8 mph70%30.01 "HgN/A
11:00 AM82 °FScattered clouds.9 mph70%30.01 "HgN/A
10:30 AM82 °FScattered clouds.9 mph74%30.01 "HgN/A
10:00 AM82 °FScattered clouds.6 mph74%30.01 "HgN/A
9:30 AM82 °FScattered clouds.6 mph74%30.01 "HgN/A
9:00 AM81 °FScattered clouds.3 mph79%30.01 "HgN/A
8:30 AM81 °FPassing clouds.3 mph74%30.01 "HgN/A
8:00 AM81 °FPassing clouds.2 mph74%30.01 "HgN/A
7:30 AM79 °FPassing clouds.3 mph79%29.98 "HgN/A
7:00 AM77 °FPassing clouds.1 mph83%29.98 "HgN/A
6:30 AM73 °FPassing clouds.2 mph89%29.98 "HgN/A
6:00 AM73 °FScattered clouds.7 mph89%29.98 "HgN/A
5:30 AM75 °FPassing clouds.2 mph89%29.98 "HgN/A
5:05 AM75 °FPassing clouds.1 mph83%29.95 "HgN/A
4:30 AM75 °FPassing clouds.1 mph89%29.95 "HgN/A
4:00 AM75 °FPassing clouds.3 mph89%29.95 "HgN/A
3:30 AM73 °FMild.No wind89%29.95 "HgN/A
3:00 AM75 °FMild.1 mph83%29.95 "HgN/A
2:30 AM75 °FMild.6 mph89%29.95 "HgN/A
2:00 AM73 °FMild.7 mph89%29.95 "HgN/A
1:30 AM75 °FMild.3 mph83%29.95 "HgN/A
1:00 AM75 °FMild.5 mph83%29.98 "HgN/A
12:30 AM77 °FWarm.6 mph83%29.98 "HgN/A
12:00 AM77 °FWarm.9 mph83%29.98 "HgN/A
11:30 PM
Sep 22
77 °FWarm.9 mph79%30.01 "HgN/A
11:00 PM77 °FWarm.7 mph79%30.01 "HgN/A
10:30 PM77 °FWarm.7 mph79%30.01 "HgN/A
10:00 PM77 °FWarm.7 mph83%30.01 "HgN/A
9:30 PM77 °FWarm.6 mph79%30.01 "HgN/A
9:00 PM77 °FWarm.6 mph79%30.01 "HgN/A
8:30 PM77 °FPassing clouds.7 mph83%30.01 "HgN/A
8:00 PM77 °FPassing clouds.6 mph83%30.01 "HgN/A
7:30 PM79 °FPassing clouds.6 mph74%30.01 "HgN/A
7:00 PM79 °FPassing clouds.5 mph74%30.01 "HgN/A
6:30 PM79 °FWarm.6 mph74%30.01 "HgN/A
6:00 PM79 °FPassing clouds.7 mph74%30.01 "HgN/A
5:30 PM79 °FPassing clouds.7 mph74%30.01 "HgN/A
5:00 PM81 °FPassing clouds.7 mph70%29.98 "HgN/A
4:30 PM82 °FPassing clouds.9 mph70%29.98 "HgN/A
4:00 PM82 °FPassing clouds.12 mph66%29.98 "HgN/A
3:30 PM84 °FPassing clouds.10 mph66%29.98 "HgN/A
3:00 PM84 °FPassing clouds.9 mph66%29.98 "HgN/A
2:34 PM84 °FPassing clouds.12 mph66%29.98 "HgN/A
2:00 PM84 °FScattered clouds.12 mph62%29.98 "HgN/A
Weather by CustomWeather, © 2014

See weather overviewHow to use our weather pages